• In Deutschland
  • Länderverzeichnis
  • Für 7 Tage
  • Wassertemperatur
  • Satellitenkarten
  • Wetterkarte
  • Widgets
  • user-avatar
    Anmelden

    Stündliche Wetter Paderborn

    Heute, 21 September, Freitag

    Zeit Temperatur Niederschläge Wind Luftdruck Luftfeuchtigkeit
    00:00 +20°C° 0 mm 4 m/S 747 mmHg 70%
    01:00 +20°C° 0 mm 4 m/S 746 mmHg 70%
    02:00 +20°C° 0 mm 4 m/S 746 mmHg 70%
    03:00 +20°C° 0 mm 4 m/S 745 mmHg 70%
    04:00 +20°C° 0 mm 5 m/S 744 mmHg 71%
    05:00 +20°C° 0 mm 5 m/S 744 mmHg 70%
    06:00 +20°C° 0 mm 6 m/S 743 mmHg 69%
    07:00 +21°C° 0 mm 4 m/S 743 mmHg 66%
    08:00 +21°C° 0 mm 5 m/S 742 mmHg 63%
    09:00 +22°C° 0 mm 7 m/S 742 mmHg 59%
    10:00 +23°C° 0 mm 8 m/S 742 mmHg 55%
    11:00 +21°C° 0.7 mm 8 m/S 743 mmHg 64%
    12:00 +18°C° 0.7 mm 7 m/S 743 mmHg 72%
    13:00 +16°C° 0.7 mm 7 m/S 744 mmHg 80%
    14:00 +16°C° 0.3 mm 7 m/S 744 mmHg 73%
    15:00 +16°C° 0.3 mm 7 m/S 745 mmHg 67%
    16:00 +16°C° 0.3 mm 7 m/S 745 mmHg 60%
    17:00 +15°C° 0 mm 6 m/S 746 mmHg 58%
    18:00 +14°C° 0 mm 5 m/S 747 mmHg 57%
    19:00 +13°C° 0 mm 4 m/S 747 mmHg 55%
    20:00 +12°C° 0 mm 5 m/S 748 mmHg 56%
    21:00 +12°C° 0 mm 5 m/S 749 mmHg 57%
    22:00 +12°C° 0 mm 5 m/S 749 mmHg 58%
    23:00 +11°C° 0 mm 6 m/S 750 mmHg 61%

    Morgen, 22 September, Samstag

    Zeit Temperatur Niederschläge Wind Luftdruck Luftfeuchtigkeit
    00:00 +11°C° 0 mm 6 m/S 750 mmHg 63%
    01:00 +10°C° 0 mm 6 m/S 750 mmHg 65%
    02:00 +10°C° 0 mm 6 m/S 750 mmHg 68%
    03:00 +10°C° 0 mm 6 m/S 751 mmHg 72%
    04:00 +10°C° 0 mm 5 m/S 751 mmHg 75%
    05:00 +10°C° 0 mm 5 m/S 751 mmHg 76%
    06:00 +9°C° 0 mm 5 m/S 752 mmHg 77%
    07:00 +9°C° 0 mm 5 m/S 752 mmHg 78%
    08:00 +12°C° 0 mm 5 m/S 752 mmHg 73%
    09:00 +13°C° 0 mm 6 m/S 753 mmHg 68%
    10:00 +14°C° 0 mm 6 m/S 753 mmHg 63%
    11:00 +15°C° 0.1 mm 6 m/S 753 mmHg 60%
    12:00 +15°C° 0.1 mm 6 m/S 753 mmHg 57%
    13:00 +16°C° 0.1 mm 6 m/S 753 mmHg 55%
    14:00 +16°C° 0.1 mm 6 m/S 753 mmHg 55%
    15:00 +16°C° 0.1 mm 6 m/S 752 mmHg 55%
    16:00 +16°C° 0.1 mm 6 m/S 752 mmHg 55%
    17:00 +14°C° 0.1 mm 5 m/S 753 mmHg 60%
    18:00 +13°C° 0.1 mm 4 m/S 753 mmHg 66%
    19:00 +12°C° 0.1 mm 3 m/S 753 mmHg 72%
    20:00 +12°C° 0 mm 3 m/S 753 mmHg 74%
    21:00 +11°C° 0 mm 3 m/S 753 mmHg 76%
    22:00 +12°C° 0 mm 2 m/S 754 mmHg 79%
    23:00 +10°C° 0 mm 2 m/S 754 mmHg 80%

    übermorgen, 23 September, Sonntag

    Zeit Temperatur Niederschläge Wind Luftdruck Luftfeuchtigkeit
    00:00 +10°C° 0 mm 2 m/S 754 mmHg 82%
    01:00 +10°C° 0 mm 2 m/S 753 mmHg 83%
    02:00 +10°C° 0.1 mm 2 m/S 753 mmHg 85%
    03:00 +10°C° 0.1 mm 2 m/S 753 mmHg 87%
    04:00 +10°C° 0.1 mm 2 m/S 753 mmHg 88%
    05:00 +10°C° 0.1 mm 2 m/S 753 mmHg 89%
    06:00 +10°C° 0.1 mm 2 m/S 752 mmHg 90%
    07:00 +11°C° 0.1 mm 1 m/S 752 mmHg 92%
    08:00 +12°C° 0.3 mm 1 m/S 752 mmHg 91%
    09:00 +12°C° 0.3 mm 1 m/S 752 mmHg 90%
    10:00 +12°C° 0.3 mm 1 m/S 751 mmHg 89%
    11:00 +12°C° 0.3 mm 2 m/S 751 mmHg 89%
    12:00 +12°C° 0.3 mm 2 m/S 750 mmHg 90%
    13:00 +12°C° 0.3 mm 2 m/S 749 mmHg 90%
    14:00 +12°C° 1 mm 2 m/S 749 mmHg 91%
    15:00 +11°C° 1 mm 3 m/S 748 mmHg 92%
    16:00 +11°C° 1 mm 3 m/S 747 mmHg 93%
    17:00 +10°C° 4 mm 4 m/S 746 mmHg 93%
    18:00 +9°C° 4 mm 5 m/S 745 mmHg 93%
    19:00 +9°C° 4 mm 6 m/S 743 mmHg 93%
    20:00 +8°C° 4 mm 6 m/S 744 mmHg 93%
    21:00 +8°C° 4 mm 7 m/S 745 mmHg 93%
    22:00 +6°C° 4 mm 7 m/S 746 mmHg 93%
    23:00 +7°C° 0.8 mm 6 m/S 748 mmHg 92%

    24 September, Montag

    Zeit Temperatur Niederschläge Wind Luftdruck Luftfeuchtigkeit
    00:00 +7°C° 0.8 mm 5 m/S 750 mmHg 91%
    01:00 +7°C° 0.8 mm 5 m/S 752 mmHg 90%
    02:00 +7°C° 0 mm 4 m/S 753 mmHg 91%
    03:00 +6°C° 0 mm 4 m/S 754 mmHg 91%
    04:00 +6°C° 0 mm 4 m/S 755 mmHg 92%
    05:00 +7°C° 0 mm 3 m/S 756 mmHg 91%
    06:00 +7°C° 0 mm 3 m/S 757 mmHg 91%
    07:00 +7°C° 0 mm 3 m/S 758 mmHg 91%
    08:00 +7°C° 0.1 mm 4 m/S 759 mmHg 84%
    09:00 +9°C° 0.1 mm 5 m/S 759 mmHg 77%
    10:00 +10°C° 0.1 mm 6 m/S 760 mmHg 70%
    11:00 +11°C° 0.2 mm 6 m/S 760 mmHg 66%
    12:00 +11°C° 0.2 mm 6 m/S 761 mmHg 62%
    13:00 +13°C° 0.2 mm 6 m/S 761 mmHg 58%
    14:00 +13°C° 0.1 mm 6 m/S 761 mmHg 56%
    15:00 +13°C° 0.1 mm 6 m/S 762 mmHg 55%
    16:00 +13°C° 0.1 mm 6 m/S 762 mmHg 53%
    17:00 +10°C° 0 mm 5 m/S 762 mmHg 60%
    18:00 +10°C° 0 mm 4 m/S 763 mmHg 66%
    19:00 +8°C° 0 mm 3 m/S 764 mmHg 72%
    20:00 +7°C° 0 mm 2 m/S 764 mmHg 75%
    21:00 +7°C° 0 mm 2 m/S 765 mmHg 79%
    22:00 +6°C° 0 mm 2 m/S 765 mmHg 82%
    23:00 +6°C° 0 mm 2 m/S 766 mmHg 84%

    25 September, Dienstag

    Zeit Temperatur Niederschläge Wind Luftdruck Luftfeuchtigkeit
    00:00 +6°C° 0 mm 1 m/S 766 mmHg 86%
    01:00 +6°C° 0 mm 1 m/S 766 mmHg 88%
    02:00 +6°C° 0 mm 1 m/S 767 mmHg 89%
    03:00 +6°C° 0 mm 1 m/S 767 mmHg 90%
    04:00 +5°C° 0 mm 1 m/S 767 mmHg 91%
    05:00 +5°C° 0 mm 1 m/S 767 mmHg 90%
    06:00 +6°C° 0 mm 1 m/S 767 mmHg 89%
    07:00 +6°C° 0 mm 1 m/S 768 mmHg 89%
    08:00 +8°C° 0 mm 1 m/S 768 mmHg 80%
    09:00 +10°C° 0 mm 1 m/S 768 mmHg 71%
    10:00 +12°C° 0 mm 1 m/S 768 mmHg 62%
    11:00 +14°C° 0 mm 1 m/S 768 mmHg 57%
    12:00 +15°C° 0 mm 1 m/S 768 mmHg 52%
    13:00 +16°C° 0 mm 1 m/S 768 mmHg 48%
    14:00 +16°C° 0 mm 1 m/S 767 mmHg 47%
    15:00 +15°C° 0 mm 1 m/S 767 mmHg 47%
    16:00 +15°C° 0 mm 1 m/S 766 mmHg 47%
    17:00 +13°C° 0 mm 1 m/S 766 mmHg 53%
    18:00 +12°C° 0 mm 1 m/S 766 mmHg 59%
    19:00 +10°C° 0 mm 1 m/S 766 mmHg 65%
    20:00 +9°C° 0 mm 1 m/S 766 mmHg 66%
    21:00 +9°C° 0 mm 1 m/S 765 mmHg 66%
    22:00 +9°C° 0 mm 1 m/S 765 mmHg 67%
    23:00 +8°C° 0 mm 1 m/S 765 mmHg 67%

    26 September, Mittwoch

    Zeit Temperatur Niederschläge Wind Luftdruck Luftfeuchtigkeit
    00:00 +8°C° 0 mm 1 m/S 765 mmHg 67%
    01:00 +8°C° 0 mm 1 m/S 764 mmHg 67%
    02:00 +7°C° 0 mm 1 m/S 764 mmHg 66%
    03:00 +6°C° 0 mm 2 m/S 764 mmHg 66%
    04:00 +6°C° 0 mm 2 m/S 763 mmHg 65%
    05:00 +6°C° 0 mm 2 m/S 763 mmHg 65%
    06:00 +7°C° 0 mm 1 m/S 763 mmHg 65%
    07:00 +7°C° 0 mm 1 m/S 763 mmHg 65%
    08:00 +9°C° 0 mm 1 m/S 763 mmHg 59%
    09:00 +12°C° 0 mm 1 m/S 762 mmHg 52%
    10:00 +14°C° 0 mm 1 m/S 762 mmHg 46%
    11:00 +16°C° 0 mm 2 m/S 762 mmHg 43%
    12:00 +17°C° 0 mm 2 m/S 761 mmHg 39%
    13:00 +18°C° 0 mm 2 m/S 761 mmHg 36%
    14:00 +19°C° 0 mm 2 m/S 760 mmHg 38%
    15:00 +19°C° 0 mm 2 m/S 760 mmHg 40%
    16:00 +19°C° 0 mm 2 m/S 759 mmHg 42%
    17:00 +17°C° 0 mm 2 m/S 759 mmHg 49%
    18:00 +15°C° 0 mm 2 m/S 759 mmHg 55%
    19:00 +12°C° 0 mm 2 m/S 759 mmHg 61%
    20:00 +12°C° 0 mm 2 m/S 759 mmHg 63%
    21:00 +10°C° 0 mm 2 m/S 759 mmHg 64%
    22:00 +9°C° 0 mm 2 m/S 759 mmHg 66%
    23:00 +9°C° 0 mm 2 m/S 758 mmHg 67%
    Mehr zeigen